Content
SEND FEEDBACK

Daily
Averages
Monthly
Summary
United States of America

INARAJAN, GUAM


Home > North America > United States > Guam
Elevation: 280 feet     Latitude: 13 18N     Longitude: 144 44E

WEATHER
 
SELECT A DAY
Number of Records: 342,166;   Date Range: 1/1/95 - 8/12/14
 
SHARE

PRINT THIS DATA

[ ← Previous Day ]
WEATHER ALMANAC - OCTOBER 5, 2013
[ Next Day → ]
[ °C ]   °F
Weather ElementAverageHighLow
Temperature81.4 °F84.7 °F (12:58 pm)77 °F (5:58 am)
Dewpoint77.5 °F79.2 °F (9:58 am)75.2 °F (6:48 pm)
Humidity88.1 %100 % (5:58 am)78 % (3:58 pm)
Barometer29.65 in29.76 in (10:43 pm)29.54 in (1:58 am)
Wind Speed11.6 mph16.1 mph (2:58 pm)
Weather ElementAverage
Visibility10 mi
Wind DirectionS (182 °)

Weather ElementTotal
Precipitation0.01 in
Cooling Degree Days15.9 (Base 65)
Growing Degree Days30.9 (Base 50)
Averaged from 46 records on October 5, 2013
WEATHER CONDITIONS BREAKOUT
WIND DIRECTION BREAKOUT
WEATHER BY HOUR - OCTOBER 5, 2013
[ °C ]   °F
Local TimeTemperatureDewpointHumidityBarometerVisibilityWind DirectionWind SpeedGust SpeedPrecipitationEventsConditions
1:58 AM77.5 °F75.9 °F95 %29.54 in10.0 miSW (230°)9.2 mphClear
5:58 AM77.0 °F77.0 °F100 %29.62 in10.0 miSW (230°)8.1 mphClear
6:56 AM78.8 °F77.0 °F94 %29.68 in10.0 miSW (220°)6.9 mphClear
6:58 AM78.8 °F77.0 °F94 %29.63 in10.0 miSW (220°)5.8 mphClear
7:58 AM82.2 °F78.1 °F87 %29.57 in10.0 miSouth (190°)8.1 mphPartly Cloudy
8:19 AM80.6 °F78.8 °F94 %29.69 in10.0 miSouth (190°)12.7 mphLight Drizzle
8:24 AM80.6 °F78.8 °F94 %29.69 in10.0 miSouth (190°)11.5 mphScattered Clouds
8:34 AM80.6 °F78.8 °F94 %29.69 in9.0 miSouth (180°)12.7 mphMostly Cloudy
8:39 AM80.6 °F78.8 °F94 %29.70 in10.0 miSouth (190°)12.7 mphMostly Cloudy
8:44 AM80.6 °F78.8 °F94 %29.70 in10.0 miSouth (180°)12.7 mphMostly Cloudy
8:49 AM80.6 °F77.0 °F89 %29.70 in10.0 miSouth (190°)12.7 mphOvercast
8:58 AM81.1 °F77.4 °F88 %29.59 in10.0 miSouth (180°)11.5 mph0.00 inOvercast
8:59 AM80.6 °F77.0 °F89 %29.71 in10.0 miSouth (180°)12.7 mphLight Drizzle
9:04 AM82.4 °F77.0 °F84 %29.71 in10.0 miSouth (180°)13.8 mphLight Drizzle
9:08 AM82.4 °F77.0 °F84 %29.71 in10.0 miSouth (180°)15.0 mphMostly Cloudy
9:10 AM82.4 °F78.8 °F89 %29.71 in10.0 miSouth (190°)15.0 mphLight Drizzle
9:15 AM82.4 °F78.8 °F89 %29.71 in10.0 miSouth (180°)13.8 mphLight Drizzle
9:25 AM82.4 °F78.8 °F89 %29.72 in10.0 miSouth (190°)11.5 mphRainRain
9:30 AM80.6 °F78.8 °F94 %29.72 in10.0 miSouth (180°)13.8 mphRainLight Rain
9:35 AM80.6 °F78.8 °F94 %29.72 in10.0 miSouth (180°)15.0 mphMostly Cloudy
9:40 AM82.4 °F78.8 °F89 %29.72 in10.0 miSouth (190°)12.7 mphMostly Cloudy
9:58 AM82.8 °F79.2 °F89 %29.60 in9.0 miSSW (200°)11.5 mph0.01 inMostly Cloudy
10:03 AM82.4 °F77.0 °F84 %29.72 in10.0 miSSW (210°)12.7 mphScattered Clouds
10:58 AM84.2 °F77.9 °F81 %29.59 in10.0 miSouth (190°)11.5 mphClear
11:58 AM83.5 °F77.5 °F82 %29.57 in10.0 miSouth (180°)11.5 mphScattered Clouds
12:33 PM82.4 °F78.8 °F89 %29.68 in10.0 miSouth (180°)13.8 mphMostly Cloudy
12:38 PM82.4 °F77.0 °F84 %29.68 in10.0 miSouth (180°)12.7 mphMostly Cloudy
12:48 PM82.4 °F77.0 °F84 %29.68 in10.0 miSouth (180°)12.7 mphMostly Cloudy
12:58 PM84.7 °F78.4 °F81 %29.55 in10.0 miSouth (170°)11.5 mphScattered Clouds
1:58 PM83.5 °F77.9 °F83 %29.55 in10.0 miSouth (180°)12.7 mphPartly Cloudy
2:58 PM81.1 °F77.0 °F87 %29.54 in10.0 miSouth (180°)16.1 mphPartly Cloudy
3:58 PM84.0 °F76.5 °F78 %29.54 in10.0 miSouth (170°)11.5 mphClear
4:58 PM82.9 °F77.2 °F83 %29.55 in10.0 miSouth (180°)10.4 mphScattered Clouds
5:08 PM82.4 °F77.0 °F84 %29.67 in10.0 miSouth (170°)10.4 mphMostly Cloudy
5:13 PM82.4 °F77.0 °F84 %29.68 in10.0 miSouth (170°)12.7 mphScattered Clouds
5:58 PM81.1 °F77.0 °F87 %29.57 in10.0 miSouth (170°)11.5 mphClear
6:38 PM80.6 °F77.0 °F89 %29.70 in10.0 miSouth (180°)10.4 mphScattered Clouds
6:48 PM80.6 °F75.2 °F84 %29.71 in10.0 miSouth (180°)12.7 mphMostly Cloudy
6:58 PM81.0 °F76.5 °F86 %29.59 in10.0 miSouth (180°)12.7 mphScattered Clouds
7:58 PM80.6 °F76.3 °F87 %29.60 in10.0 miSouth (180°)12.7 mphScattered Clouds
8:58 PM80.6 °F77.0 °F89 %29.63 in10.0 miSE (140°)11.5 mphScattered Clouds
9:58 PM80.8 °F76.6 °F87 %29.62 in10.0 miSSE (150°)8.1 mphPartly Cloudy
10:38 PM80.6 °F77.0 °F89 %29.75 in10.0 miSSE (150°)9.2 mphMostly Cloudy
10:43 PM80.6 °F77.0 °F89 %29.76 in10.0 miSSE (150°)9.2 mphMostly Cloudy
10:58 PM80.8 °F77.0 °F88 %29.62 in10.0 miSSE (160°)6.9 mphScattered Clouds
11:58 PM80.8 °F76.8 °F88 %29.62 in10.0 miSSE (150°)10.4 mphScattered Clouds
Hourly data recorded from PGUA, located miles away from Inarajan, Guam







STORIES FROM OUR PARTNERS